User: anonymous
Location: Waning Moon II Observatory
(30.3730°N, 89.7620°W)
Time: 22:33:07
(UTC-05:00)
Language:

Meteor 1-21 - Orbit

View from above orbital plane
View from above orbital plane
View from above satellite
View from above satellite

Ground track
Ground track

The orbit data is extracted from the following two-line orbital elements,

1 07714U 75023A   14203.43272463 -.00000078  00000-0 -53155-4 0  8569
2 07714 081.2122 144.4464 0031132 002.7478 136.8196 14.07815788335938
Epoch (UTC): 22 July 2014 10:23:07
Eccentricity: 0.0031132
inclination: 81.2122°
perigee height: 844 km
apogee height: 889 km
right ascension of ascending node: 144.4464°
argument of perigee: 2.7478°
revolutions per day: 14.07815788
mean anomaly at epoch: 136.8196°
orbit number at epoch: 33593

The dashed part of the orbit path shows where the satellite is in the earth's shadow,  

DLR